FW6710 Weather Reports


time (UTC)temp
C
wind
direction
speed
KPH
gust
KPH
rain 1hr
cm
rain 24hr
cm
rain mn
cm
humidity
%
barometer
mb
20260503183101 18 0.0 0.0 0.00 0.00 0.00 60 1014.4
20260503181624 19 0.0 0.0 0.00 0.00 0.00 66 1014.3
20260503180136 20 0.0 0.0 0.00 0.00 0.00 70 1014.1
20260503174601 20 0.0 0.0 0.00 0.00 0.00 69 1014.2
20260503173103 20 0.0 0.0 0.00 0.00 0.00 68 1014.1
20260503171600 21 0.0 0.0 0.00 0.00 0.00 65 1014.2
20260503170105 22 0.0 0.0 0.00 0.00 0.00 63 1014.4
20260503150107 21 0.0 0.0 0.00 0.00 0.00 67 1014.7
20260503120110 22 0.0 0.0 0.00 0.00 0.00 60 1016.2
20260503100128 20 0.0 0.0 0.00 0.00 0.00 62 1016.8
20260503081602 17 0.0 0.0 0.00 0.00 0.00 65 1017.6
20260503071613 15 0.0 0.0 0.00 0.00 0.00 63 1017.7
20260503070113 13 0.0 0.0 0.00 0.00 0.00 64 1017.7
20260503060116 11 0.0 0.0 0.00 0.00 0.00 72 1017.5
20260503054559 10 0.0 0.0 0.00 0.00 0.00 73 1017.4
20260503053059 10 0.0 0.0 0.00 0.00 0.00 73 1017.4
20260503051600 9 0.0 0.0 0.00 0.00 0.00 73 1017.4
20260503050059 9 0.0 0.0 0.00 0.00 0.00 73 1017.4
20260503044626 8 0.0 0.0 0.00 0.00 0.00 73 1017.3
20260503043101 9 0.0 0.0 0.00 0.00 0.00 73 1017.3
20260503041558 9 0.0 0.0 0.00 0.00 0.00 73 1017.3
20260503040106 9 0.0 0.0 0.00 0.00 0.00 72 1017.2
20260503034600 9 0.0 0.0 0.00 0.00 0.00 72 1017.2
20260503033058 9 0.0 0.0 0.00 0.00 0.00 72 1017.2
20260503031601 9 0.0 0.0 0.00 0.00 0.00 72 1017.2
20260503030109 9 0.0 0.0 0.00 0.00 0.00 71 1017.3
20260503024602 10 0.0 0.0 0.00 0.00 0.00 71 1017.3
20260503023102 10 0.0 0.0 0.00 0.00 0.00 71 1017.3
20260503021559 10 0.0 0.0 0.00 0.00 0.00 71 1017.3
20260503020115 10 0.0 0.0 0.00 0.00 0.00 71 1017.4
20260503014610 10 0.0 0.0 0.00 0.00 0.00 71 1017.5
20260503013116 10 0.0 0.0 0.00 0.00 0.00 71 1017.6
20260503011600 10 0.0 0.0 0.00 0.00 0.00 71 1017.7
20260503010058 10 0.0 0.0 0.00 0.00 0.00 71 1017.7
20260503004605 10 0.0 0.0 0.00 0.00 0.00 70 1017.9
20260503003105 10 0.0 0.0 0.00 0.00 0.00 70 1017.9
20260503001559 10 0.0 0.0 0.00 0.00 0.00 70 1018.1
20260503000106 10 0.0 0.0 0.00 0.00 0.00 71 1018.2
20260502234617 10 0.0 0.0 0.00 0.00 0.00 71 1018.3
20260502233059 11 0.0 0.0 0.00 0.00 0.00 70 1018.5
20260502231558 11 0.0 0.0 0.00 0.00 0.00 71 1018.5
20260502230058 11 0.0 0.0 0.00 0.00 0.00 71 1018.7
20260502224602 11 0.0 0.0 0.00 0.00 0.00 70 1018.8
20260502223107 11 0.0 0.0 0.00 0.00 0.00 69 1018.9
20260502221601 11 0.0 0.0 0.00 0.00 0.00 68 1018.8
20260502214615 12 0.0 0.0 0.00 0.00 0.00 67 1018.8
20260502213120 12 0.0 0.0 0.00 0.00 0.00 66 1019.0
20260502211558 12 0.0 0.0 0.00 0.00 0.00 65 1019.0
20260502210059 13 0.0 0.0 0.00 0.00 0.00 64 1019.0
20260502204559 13 0.0 0.0 0.00 0.00 0.00 63 1019.0
20260502203116 14 0.0 0.0 0.00 0.00 0.00 61 1019.0
20260502201559 14 0.0 0.0 0.00 0.00 0.00 60 1019.0
20260502200105 15 0.0 0.0 0.00 0.00 0.00 58 1018.9
20260502194558 15 0.0 0.0 0.00 0.00 0.00 56 1019.0
20260502193100 15 0.0 0.0 0.00 0.00 0.00 55 1018.9
20260502191603 16 0.0 0.0 0.00 0.00 0.00 57 1018.8
20260502190058 16 0.0 0.0 0.00 0.00 0.00 58 1018.8
20260502184558 16 0.0 0.0 0.00 0.00 0.00 57 1018.6